2014-11-17 00:03:21 r, 16.34m,0000000026Hz,0000018023c,0000000.039s, 005.4C,00002195
2014-11-17 00:13:21 r, 16.55m,0000000022Hz,0000021781c,0000000.047s, 005.4C,00002195
2014-11-17 00:23:21 r, 16.56m,0000000021Hz,0000021933c,0000000.048s, 005.8C,00002195
2014-11-17 00:33:21 r, 15.10m,0000000079Hz,0000005704c,0000000.012s, 005.8C,00002195
2014-11-17 00:43:21 r, 15.15m,0000000076Hz,0000005961c,0000000.013s, 005.8C,00002195
2014-11-17 00:53:21 r, 14.81m,0000000104Hz,0000004410c,0000000.010s, 005.8C,00002195
2014-11-17 01:03:21 r, 15.12m,0000000079Hz,0000005842c,0000000.013s, 006.1C,00002195
2014-11-17 01:13:21 r, 15.54m,0000000054Hz,0000008590c,0000000.019s, 006.1C,00002195
2014-11-17 01:23:21 r, 15.29m,0000000068Hz,0000006784c,0000000.015s, 006.1C,00002195
2014-11-17 01:33:21 r, 15.46m,0000000057Hz,0000007997c,0000000.017s, 006.1C,00002195
2014-11-17 01:43:21 r, 15.15m,0000000077Hz,0000005988c,0000000.013s, 006.1C,00002195
2014-11-17 01:53:21 r, 14.73m,0000000114Hz,0000004049c,0000000.009s, 006.1C,00002195
2014-11-17 02:03:21 r, 14.77m,0000000107Hz,0000004254c,0000000.009s, 006.4C,00002195
2014-11-17 02:13:21 r, 14.95m,0000000092Hz,0000004989c,0000000.011s, 006.4C,00002195
2014-11-17 02:23:21 r, 15.44m,0000000058Hz,0000007831c,0000000.017s, 006.4C,00002195
2014-11-17 02:33:21 r, 16.09m,0000000033Hz,0000014221c,0000000.031s, 006.4C,00002195
2014-11-17 02:43:21 r, 16.05m,0000000033Hz,0000013716c,0000000.030s, 006.4C,00002195
2014-11-17 02:53:21 r, 15.36m,0000000064Hz,0000007232c,0000000.016s, 006.1C,00002195
2014-11-17 03:03:21 r, 15.43m,0000000060Hz,0000007761c,0000000.017s, 006.1C,00002195
2014-11-17 03:13:21 r, 16.12m,0000000032Hz,0000014545c,0000000.032s, 006.1C,00002195
2014-11-17 03:23:21 r, 16.93m,0000000015Hz,0000030773c,0000000.067s, 006.1C,00002195
2014-11-17 03:33:21 r, 16.66m,0000000020Hz,0000023953c,0000000.052s, 005.8C,00002195
2014-11-17 03:43:21 r, 16.99m,0000000014Hz,0000032403c,0000000.070s, 005.8C,00002195
2014-11-17 03:53:21 r, 16.47m,0000000022Hz,0000020232c,0000000.044s, 005.8C,00002195
2014-11-17 04:03:21 r, 16.36m,0000000026Hz,0000018203c,0000000.040s, 005.8C,00002195
2014-11-17 04:13:21 r, 17.08m,0000000013Hz,0000035442c,0000000.077s, 005.8C,00002195
2014-11-17 04:23:21 r, 16.74m,0000000018Hz,0000025741c,0000000.056s, 005.8C,00002195
2014-11-17 04:33:21 r, 17.42m,0000000009Hz,0000048262c,0000000.105s, 005.8C,00002195
2014-11-17 04:43:21 r, 17.03m,0000000013Hz,0000033900c,0000000.074s, 006.1C,00002195
2014-11-17 04:53:21 r, 16.44m,0000000023Hz,0000019607c,0000000.043s, 006.1C,00002195
2014-11-17 05:03:21 r, 16.74m,0000000017Hz,0000025963c,0000000.056s, 006.1C,00002195
2014-11-17 05:13:21 r, 16.86m,0000000016Hz,0000029040c,0000000.063s, 006.1C,00002195
2014-11-17 05:23:21 r, 17.06m,0000000013Hz,0000034776c,0000000.075s, 006.1C,00002195
2014-11-17 05:33:21 r, 16.54m,0000000021Hz,0000021613c,0000000.047s, 006.1C,00002195
2014-11-17 05:43:21 r, 16.18m,0000000030Hz,0000015483c,0000000.034s, 005.8C,00002195
2014-11-17 05:53:21 r, 16.01m,0000000035Hz,0000013189c,0000000.029s, 006.1C,00002195
2014-11-17 06:03:21 r, 17.07m,0000000013Hz,0000035295c,0000000.077s, 006.1C,00002195
2014-11-17 06:13:21 r, 16.92m,0000000015Hz,0000030491c,0000000.066s, 006.1C,00002195
2014-11-17 06:23:21 r, 16.03m,0000000034Hz,0000013485c,0000000.029s, 006.1C,00002195
2014-11-17 06:33:21 r, 15.71m,0000000047Hz,0000010028c,0000000.022s, 006.1C,00002195
2014-11-17 06:43:21 r, 15.88m,0000000040Hz,0000011735c,0000000.025s, 006.4C,00002195
2014-11-17 06:53:21 r, 14.92m,0000000093Hz,0000004840c,0000000.011s, 006.4C,00002195
2014-11-17 07:03:21 r, 13.60m,0000000322Hz,0000000000c,0000000.000s, 006.4C,00002195
2014-11-17 07:13:21 r, 11.90m,0000001544Hz,0000000000c,0000000.000s, 006.4C,00002195
2014-11-17 07:23:21 r, 10.03m,0000008688Hz,0000000000c,0000000.000s, 006.4C,00002195
2014-11-17 07:33:21 r, 08.45m,0000037360Hz,0000000000c,0000000.000s, 006.4C,00002195
2014-11-17 07:43:21 r, 07.34m,0000102445Hz,0000000000c,0000000.000s, 006.4C,00002195
2014-11-17 07:53:21 r, 06.53m,0000218624Hz,0000000000c,0000000.000s, 006.4C,00002195
2014-11-17 08:03:21 r, 05.96m,0000367867Hz,0000000000c,0000000.000s, 006.1C,00002195
2014-11-17 08:13:21 r, 00.00m,0000562101Hz,0000000000c,0000000.000s, 006.4C,00002195
2014-11-17 08:23:21 r, 00.00m,0000561485Hz,0000000000c,0000000.000s, 006.4C,00002195
2014-11-17 08:33:21 r, 00.00m,0000561479Hz,0000000000c,0000000.000s, 006.7C,00002195
2014-11-17 08:43:21 r, 00.00m,0000561638Hz,0000000000c,0000000.000s, 006.7C,00002195
2014-11-17 08:53:21 r, 00.00m,0000561612Hz,0000000000c,0000000.000s, 007.0C,00002195
2014-11-17 09:03:21 r, 00.00m,0000561638Hz,0000000000c,0000000.000s, 007.4C,00002195
2014-11-17 09:13:21 r, 00.00m,0000561717Hz,0000000000c,0000000.000s, 007.7C,00002195
2014-11-17 09:23:21 r, 00.00m,0000561736Hz,0000000000c,0000000.000s, 008.0C,00002195
2014-11-17 09:33:21 r, 00.00m,0000561804Hz,0000000000c,0000000.000s, 008.3C,00002195
2014-11-17 09:43:21 r, 00.00m,0000561941Hz,0000000000c,0000000.000s, 009.3C,00002195
2014-11-17 09:53:21 r, 00.00m,0000562018Hz,0000000000c,0000000.000s, 009.6C,00002195
2014-11-17 10:03:21 r, 00.00m,0000561990Hz,0000000000c,0000000.000s, 009.6C,00002195
2014-11-17 10:13:21 r, 00.00m,0000561974Hz,0000000000c,0000000.000s, 009.9C,00002195
2014-11-17 10:23:21 r, 00.00m,0000561913Hz,0000000000c,0000000.000s, 009.3C,00002195
2014-11-17 10:33:21 r, 00.00m,0000561933Hz,0000000000c,0000000.000s, 009.9C,00002195
2014-11-17 10:43:21 r, 00.00m,0000562205Hz,0000000000c,0000000.000s, 011.2C,00002195
2014-11-17 10:53:21 r, 00.00m,0000562373Hz,0000000000c,0000000.000s, 012.2C,00002195
2014-11-17 11:03:21 r, 00.00m,0000562378Hz,0000000000c,0000000.000s, 011.9C,00002195
2014-11-17 11:13:21 r, 00.00m,0000562267Hz,0000000000c,0000000.000s, 011.6C,00002195
2014-11-17 11:23:21 r, 00.00m,0000562165Hz,0000000000c,0000000.000s, 011.2C,00002195
2014-11-17 11:33:21 r, 00.00m,0000562256Hz,0000000000c,0000000.000s, 010.9C,00002195
2014-11-17 11:43:21 r, 00.00m,0000562156Hz,0000000000c,0000000.000s, 010.9C,00002195
2014-11-17 11:53:21 r, 00.00m,0000562226Hz,0000000000c,0000000.000s, 011.2C,00002195
2014-11-17 12:03:21 r, 00.00m,0000562256Hz,0000000000c,0000000.000s, 011.6C,00002195
2014-11-17 12:13:21 r, 00.00m,0000562260Hz,0000000000c,0000000.000s, 011.6C,00002195
2014-11-17 12:23:21 r, 00.00m,0000562254Hz,0000000000c,0000000.000s, 011.6C,00002195
2014-11-17 12:33:21 r, 00.00m,0000562278Hz,0000000000c,0000000.000s, 011.6C,00002195
2014-11-17 12:43:21 r, 00.00m,0000562304Hz,0000000000c,0000000.000s, 011.6C,00002195
2014-11-17 12:53:21 r, 00.00m,0000562266Hz,0000000000c,0000000.000s, 011.6C,00002195
2014-11-17 13:03:21 r, 00.00m,0000562297Hz,0000000000c,0000000.000s, 011.9C,00002195
2014-11-17 13:13:21 r, 00.00m,0000562237Hz,0000000000c,0000000.000s, 011.9C,00002195
2014-11-17 13:23:21 r, 00.00m,0000562279Hz,0000000000c,0000000.000s, 011.6C,00002195
2014-11-17 13:33:21 r, 00.00m,0000562315Hz,0000000000c,0000000.000s, 011.6C,00002195
2014-11-17 13:43:21 r, 00.00m,0000562199Hz,0000000000c,0000000.000s, 011.2C,00002195
2014-11-17 13:53:21 r, 00.00m,0000562216Hz,0000000000c,0000000.000s, 011.2C,00002195
2014-11-17 14:03:21 r, 00.00m,0000562183Hz,0000000000c,0000000.000s, 011.2C,00002195
2014-11-17 14:13:21 r, 00.00m,0000562194Hz,0000000000c,0000000.000s, 010.9C,00002195
2014-11-17 14:23:21 r, 00.00m,0000562216Hz,0000000000c,0000000.000s, 011.2C,00002195
2014-11-17 14:33:21 r, 00.00m,0000562340Hz,0000000000c,0000000.000s, 011.6C,00002195
2014-11-17 14:43:21 r, 00.00m,0000562262Hz,0000000000c,0000000.000s, 010.9C,00002195
2014-11-17 14:53:21 r, 00.00m,0000562205Hz,0000000000c,0000000.000s, 010.9C,00002195
2014-11-17 15:03:21 r, 00.00m,0000562169Hz,0000000000c,0000000.000s, 010.9C,00002195
2014-11-17 15:13:21 r, 00.00m,0000562171Hz,0000000000c,0000000.000s, 010.6C,00002195
2014-11-17 15:23:21 r, 00.00m,0000562087Hz,0000000000c,0000000.000s, 010.3C,00002195
2014-11-17 15:33:21 r, 00.00m,0000561937Hz,0000000000c,0000000.000s, 009.9C,00002195
2014-11-17 15:43:21 r, 00.00m,0000561938Hz,0000000000c,0000000.000s, 009.6C,00002195
2014-11-17 15:53:21 r, 00.00m,0000561785Hz,0000000000c,0000000.000s, 009.0C,00002195
2014-11-17 16:03:21 r, 00.00m,0000561664Hz,0000000000c,0000000.000s, 009.0C,00002195
2014-11-17 16:13:21 r, 00.00m,0000416117Hz,0000000000c,0000000.000s, 008.3C,00002195
2014-11-17 16:23:21 r, 06.15m,0000310145Hz,0000000000c,0000000.000s, 008.0C,00002195
2014-11-17 16:33:21 r, 06.68m,0000189619Hz,0000000000c,0000000.000s, 007.7C,00002195
2014-11-17 16:43:21 r, 07.46m,0000092077Hz,0000000000c,0000000.000s, 007.4C,00002195
2014-11-17 16:53:21 r, 08.61m,0000032055Hz,0000000000c,0000000.000s, 007.4C,00002195
2014-11-17 17:03:21 r, 10.17m,0000007590Hz,0000000000c,0000000.000s, 007.4C,00002195
2014-11-17 17:13:21 r, 12.03m,0000001374Hz,0000000000c,0000000.000s, 007.4C,00002195
2014-11-17 17:23:21 r, 13.98m,0000000228Hz,0000000000c,0000000.000s, 007.4C,00002195
2014-11-17 17:33:21 r, 15.77m,0000000043Hz,0000010609c,0000000.023s, 007.0C,00002195
2014-11-17 17:43:21 r, 16.13m,0000000032Hz,0000014723c,0000000.032s, 007.0C,00002195
2014-11-17 17:53:21 r, 16.24m,0000000028Hz,0000016359c,0000000.036s, 006.7C,00002195
2014-11-17 18:03:21 r, 16.10m,0000000032Hz,0000014276c,0000000.031s, 006.7C,00002195
2014-11-17 18:13:21 r, 16.06m,0000000034Hz,0000013783c,0000000.030s, 006.7C,00002195
2014-11-17 18:23:21 r, 15.88m,0000000040Hz,0000011739c,0000000.025s, 006.7C,00002195
2014-11-17 18:33:21 r, 15.60m,0000000051Hz,0000009077c,0000000.020s, 007.0C,00002195
2014-11-17 18:43:21 r, 15.70m,0000000047Hz,0000009950c,0000000.022s, 007.0C,00002195
2014-11-17 18:53:21 r, 15.62m,0000000049Hz,0000009231c,0000000.020s, 007.0C,00002195
2014-11-17 19:03:21 r, 15.90m,0000000038Hz,0000011922c,0000000.026s, 007.0C,00002195
2014-11-17 19:13:21 r, 15.83m,0000000041Hz,0000011182c,0000000.024s, 007.0C,00002195
2014-11-17 19:23:21 r, 15.88m,0000000040Hz,0000011685c,0000000.025s, 007.0C,00002195
2014-11-17 19:33:21 r, 16.04m,0000000034Hz,0000013516c,0000000.029s, 007.0C,00002195
2014-11-17 19:43:21 r, 16.04m,0000000033Hz,0000013667c,0000000.030s, 007.0C,00002195
2014-11-17 19:53:21 r, 15.94m,0000000037Hz,0000012439c,0000000.027s, 007.0C,00002195
2014-11-17 20:03:21 r, 15.82m,0000000042Hz,0000011049c,0000000.024s, 007.0C,00002195
2014-11-17 20:13:21 r, 16.02m,0000000035Hz,0000013281c,0000000.029s, 007.0C,00002195
2014-11-17 20:23:21 r, 15.86m,0000000040Hz,0000011503c,0000000.025s, 007.0C,00002195
2014-11-17 20:33:21 r, 15.53m,0000000054Hz,0000008484c,0000000.018s, 007.0C,00002195
2014-11-17 20:43:21 r, 15.94m,0000000037Hz,0000012443c,0000000.027s, 007.0C,00002195
2014-11-17 20:53:21 r, 17.22m,0000000012Hz,0000040424c,0000000.088s, 007.0C,00002195
2014-11-17 21:03:21 r, 17.66m,0000000008Hz,0000060463c,0000000.131s, 007.0C,00002195
2014-11-17 21:13:21 r, 17.31m,0000000010Hz,0000043562c,0000000.095s, 006.7C,00002195
2014-11-17 21:23:21 r, 17.66m,0000000008Hz,0000060644c,0000000.132s, 006.4C,00002195
2014-11-17 21:33:21 r, 17.68m,0000000008Hz,0000061452c,0000000.133s, 006.4C,00002195
2014-11-17 21:43:21 r, 17.68m,0000000007Hz,0000061371c,0000000.133s, 006.4C,00002195
2014-11-17 21:53:21 r, 16.90m,0000000015Hz,0000029997c,0000000.065s, 006.1C,00002195
2014-11-17 22:03:21 r, 17.23m,0000000012Hz,0000040487c,0000000.088s, 006.1C,00002195
2014-11-17 22:13:21 r, 17.39m,0000000009Hz,0000046894c,0000000.102s, 006.1C,00002195
2014-11-17 22:23:21 r, 17.68m,0000000007Hz,0000061526c,0000000.134s, 006.1C,00002195
2014-11-17 22:33:21 r, 17.69m,0000000008Hz,0000062454c,0000000.136s, 006.1C,00002195
2014-11-17 22:43:21 r, 17.69m,0000000007Hz,0000062368c,0000000.135s, 006.1C,00002195
2014-11-17 22:53:21 r, 17.71m,0000000007Hz,0000063342c,0000000.137s, 006.1C,00002195
2014-11-17 23:03:21 r, 17.14m,0000000012Hz,0000037423c,0000000.081s, 006.1C,00002195
2014-11-17 23:13:21 r, 16.12m,0000000031Hz,0000014578c,0000000.032s, 006.1C,00002195
2014-11-17 23:23:21 r, 15.39m,0000000062Hz,0000007448c,0000000.016s, 006.1C,00002195
2014-11-17 23:33:21 r, 16.68m,0000000019Hz,0000024366c,0000000.053s, 006.4C,00002195
2014-11-17 23:43:21 r, 16.81m,0000000017Hz,0000027756c,0000000.060s, 006.7C,00002195
2014-11-17 23:53:21 r, 16.19m,0000000029Hz,0000015651c,0000000.034s, 006.7C,00002195
